Weather History for Marshall, MI

Change the Weather History Date:

Friday, November 15, 2013

  Actual Average (KBTL) Record (KBTL)
Temperature  
Mean Temperature 44 °F 40 °F  
Max Temperature 50 °F 48 °F 63 °F (2001)
Min Temperature 37 °F 31 °F 17 °F (2014)
Degree Days  
Heating Degree Days 22 25  
Month to date heating degree days 339  
Since 1 July heating degree days 1001  
Cooling Degree Days 0 0  
Month to date cooling degree days 0  
Year to date cooling degree days 578  
Moisture  
Dew Point 25 °F    
Average Humidity 51    
Maximum Humidity 63    
Minimum Humidity 37    
Precipitation  
Precipitation 0.00 in 0.10 in 0.28 in (2005)
Month to date precipitation 1.49  
Year to date precipitation 29.82  
Sea Level Pressure  
Sea Level Pressure 30.00 in    
Wind  
Wind Speed 9 mph (SSW)    
Max Wind Speed 14 mph    
Max Gust Speed 21 mph    
Visibility 10 miles    
Events      
T = Trace of Precipitation, MM = Missing Value Source: NWS Daily Summary

Daily Weather History Graph

Daily Weather History Graph

Search for Another Location

Airport:

Trip Planner

Search our weather history database for the weather conditions in past years. The results will help you decide how hot, cold, wet, or windy it might be!

Date:

Astronomy

Nov. 15, 2013 Rise Set
Actual Time 7:30 AM EST 5:17 PM EST
Civil Twilight 7:00 AM EST 5:48 PM EST
Nautical Twilight 6:26 AM EST 6:21 PM EST
Astronomical Twilight 5:53 AM EST 6:55 PM EST
Moon 4:15 PM EST (11/15) 5:24 AM EST (11/15)
Length of Visible Light 10h 47m
Length of Day
9h 47m
Waxing Gibbous, 96% of the Moon is Illuminated
Nov 15
Waxing Gibbous
Nov 17
Full
Nov 25
Last Quarter
Dec 2
New
Dec 9
First Quarter

Hourly Weather History & Observations

Time (EST) Temp. Windchill Dew Point Humidity Pressure Visibility Wind Dir Wind Speed Gust Speed Precip Events Conditions
12:14 AM 40.1 °F 34.1 °F 22.1 °F 49% 29.99 in 10.0 mi SSW 9.2 mph 17.3 mph N/A   Clear
12:34 AM 40.1 °F 33.6 °F 22.1 °F 49% 29.99 in 10.0 mi SSW 10.4 mph 16.1 mph N/A   Clear
12:54 AM 40.1 °F 33.2 °F 22.1 °F 49% 29.99 in 10.0 mi SSW 11.5 mph 17.3 mph N/A   Clear
1:14 AM 39.7 °F 33.2 °F 22.1 °F 49% 29.99 in 10.0 mi SSW 10.4 mph - N/A   Clear
1:34 AM 39.4 °F 33.2 °F 21.9 °F 50% 29.99 in 10.0 mi SW 9.2 mph 17.3 mph N/A   Clear
1:54 AM 39.6 °F 33.5 °F 21.9 °F 49% 29.99 in 10.0 mi SW 9.2 mph 16.1 mph N/A   Clear
2:14 AM 39.6 °F 32.5 °F 21.9 °F 49% 29.99 in 10.0 mi SSW 11.5 mph 18.4 mph N/A   Clear
2:34 AM 39.2 °F 33.6 °F 21.9 °F 50% 29.99 in 10.0 mi SSW 8.1 mph - N/A   Clear
2:54 AM 39.2 °F 32.5 °F 22.1 °F 50% 29.99 in 10.0 mi SW 10.4 mph - N/A   Clear
3:14 AM 39.2 °F 32.5 °F 22.1 °F 50% 29.99 in 10.0 mi SSW 10.4 mph - N/A   Clear
3:34 AM 39.2 °F 33.0 °F 22.5 °F 51% 29.99 in 10.0 mi SSW 9.2 mph - N/A   Clear
3:54 AM 38.7 °F 32.4 °F 22.6 °F 53% 29.98 in 10.0 mi SSW 9.2 mph - N/A   Clear
4:14 AM 38.7 °F 32.9 °F 22.6 °F 53% 29.98 in 10.0 mi SSW 8.1 mph - N/A   Clear
4:34 AM 38.7 °F 32.9 °F 22.6 °F 53% 29.98 in 10.0 mi SSW 8.1 mph - N/A   Clear
4:54 AM 39.2 °F 33.6 °F 22.8 °F 52% 29.97 in 10.0 mi SSW 8.1 mph - N/A   Clear
5:14 AM 39.2 °F 33.0 °F 22.8 °F 52% 29.98 in 10.0 mi SSW 9.2 mph - N/A   Clear
5:34 AM 38.7 °F 33.6 °F 22.8 °F 53% 29.98 in 10.0 mi SSW 6.9 mph - N/A   Clear
5:54 AM 38.5 °F 32.7 °F 22.8 °F 53% 29.98 in 10.0 mi SSW 8.1 mph - N/A   Clear
6:14 AM 38.3 °F 32.5 °F 22.8 °F 54% 29.98 in 10.0 mi SSW 8.1 mph - N/A   Clear
6:34 AM 37.6 °F 31.6 °F 22.8 °F 55% 29.99 in 10.0 mi SSW 8.1 mph - N/A   Clear
6:54 AM 37.4 °F 32.1 °F 22.8 °F 56% 29.99 in 10.0 mi SSW 6.9 mph - N/A   Clear
7:14 AM 37.6 °F 31.6 °F 23.0 °F 56% 29.99 in 10.0 mi SSW 8.1 mph - N/A   Clear
7:34 AM 37.6 °F 33.1 °F 22.8 °F 55% 29.99 in 10.0 mi SSW 5.8 mph - N/A   Clear
7:54 AM 37.2 °F 31.9 °F 23.0 °F 56% 30.00 in 10.0 mi SSW 6.9 mph - N/A   Clear
8:14 AM 37.4 °F 32.1 °F 23.2 °F 57% 30.01 in 10.0 mi SSW 6.9 mph - N/A   Clear
8:34 AM 39.0 °F 32.8 °F 23.4 °F 53% 30.01 in 10.0 mi South 9.2 mph - N/A   Clear
8:54 AM 40.1 °F 34.1 °F 23.7 °F 52% 30.02 in 10.0 mi SSW 9.2 mph - N/A   Clear
9:08 AM 41.0 °F 34.7 °F 23.9 °F 51% 30.02 in 10.0 mi SSW 10.4 mph 16.1 mph N/A   Clear
9:25 AM 42.8 °F 36.2 °F 23.0 °F 46% 30.02 in 10.0 mi SW 12.7 mph 19.6 mph N/A   Clear
9:42 AM 41.9 °F 34.6 °F 24.1 °F 49% 30.02 in 10.0 mi SW 13.8 mph 17.3 mph N/A   Clear
9:54 AM 42.8 °F 36.6 °F 24.4 °F 48% 30.02 in 10.0 mi SW 11.5 mph 17.3 mph N/A   Clear
10:14 AM 44.1 °F 39.5 °F 24.4 °F 46% 30.02 in 10.0 mi SW 8.1 mph 17.3 mph N/A   Clear
10:34 AM 45.3 °F 39.0 °F 25.2 °F 45% 30.02 in 10.0 mi SW 13.8 mph 17.3 mph N/A   Clear
10:54 AM 46.6 °F - 25.3 °F 43% 30.02 in 10.0 mi SW 11.5 mph - N/A   Clear
11:14 AM 45.7 °F 40.6 °F 24.6 °F 44% 30.02 in 10.0 mi SSW 10.4 mph 17.3 mph N/A   Clear
11:34 AM 45.0 °F 40.6 °F 25.3 °F 46% 30.01 in 10.0 mi SSW 8.1 mph - N/A   Clear
11:54 AM 45.0 °F 40.6 °F 25.7 °F 47% 30.01 in 10.0 mi SSW 8.1 mph - N/A   Clear
12:14 PM 45.1 °F 40.3 °F 25.0 °F 45% 30.00 in 10.0 mi SW 9.2 mph - N/A   Clear
12:34 PM 46.2 °F 42.2 °F 25.3 °F 44% 29.99 in 10.0 mi South 8.1 mph 16.1 mph N/A   Clear
12:54 PM 47.1 °F - 25.7 °F 43% 29.98 in 10.0 mi South 10.4 mph 16.1 mph N/A   Scattered Clouds
1:14 PM 49.5 °F - 25.7 °F 40% 29.97 in 10.0 mi South 9.2 mph - N/A   Clear
1:34 PM 49.1 °F - 25.2 °F 39% 29.97 in 10.0 mi South 12.7 mph - N/A   Scattered Clouds
1:54 PM 50.5 °F - 25.2 °F 37% 29.97 in 10.0 mi SW 11.5 mph 19.6 mph N/A   Scattered Clouds
2:14 PM 49.5 °F - 24.8 °F 38% 29.97 in 10.0 mi SSW 10.4 mph 20.7 mph N/A   Overcast
2:34 PM 47.8 °F - 25.2 °F 41% 29.97 in 10.0 mi SW 11.5 mph - N/A   Overcast
2:54 PM 47.7 °F - 25.7 °F 42% 29.97 in 10.0 mi SSW 10.4 mph - N/A   Overcast
3:14 PM 47.7 °F - 25.9 °F 43% 29.97 in 10.0 mi South 8.1 mph - N/A   Overcast
3:34 PM 47.7 °F - 26.4 °F 44% 29.98 in 10.0 mi SW 9.2 mph - N/A   Overcast
3:54 PM 47.8 °F - 26.6 °F 44% 29.97 in 10.0 mi SSW 8.1 mph - N/A   Overcast
4:14 PM 47.5 °F - 27.0 °F 45% 29.98 in 10.0 mi SSW 4.6 mph - N/A   Overcast
4:34 PM 47.5 °F - 27.0 °F 45% 29.98 in 10.0 mi SSW 5.8 mph - N/A   Overcast
4:54 PM 47.1 °F - 27.3 °F 46% 29.97 in 10.0 mi SSW 3.5 mph - N/A   Overcast
5:14 PM 46.0 °F 44.8 °F 26.8 °F 47% 29.98 in 10.0 mi SW 3.5 mph - N/A   Overcast
5:34 PM 45.1 °F 42.8 °F 27.0 °F 49% 29.98 in 10.0 mi South 4.6 mph - N/A   Overcast
5:54 PM 45.7 °F 42.7 °F 27.1 °F 48% 29.99 in 10.0 mi South 5.8 mph - N/A   Overcast
6:14 PM 46.2 °F 43.3 °F 27.3 °F 48% 30.00 in 10.0 mi South 5.8 mph - N/A   Overcast
6:34 PM 46.4 °F 44.3 °F 27.5 °F 48% 30.00 in 10.0 mi SSW 4.6 mph - N/A   Overcast
6:54 PM 46.4 °F 43.5 °F 27.5 °F 48% 29.99 in 10.0 mi South 5.8 mph - N/A   Overcast
7:14 PM 45.9 °F 44.6 °F 27.5 °F 49% 30.00 in 10.0 mi SSW 3.5 mph - N/A   Overcast
7:34 PM 45.3 °F 44.0 °F 27.5 °F 50% 30.00 in 10.0 mi South 3.5 mph - N/A   Overcast
7:54 PM 42.6 °F 39.9 °F 27.5 °F 55% 30.00 in 10.0 mi South 4.6 mph - N/A   Mostly Cloudy
8:14 PM 41.9 °F 39.0 °F 27.5 °F 57% 30.01 in 10.0 mi South 4.6 mph - N/A   Scattered Clouds
8:34 PM 41.0 °F 37.1 °F 27.7 °F 59% 30.01 in 10.0 mi South 5.8 mph - N/A   Clear
8:54 PM 40.8 °F 37.8 °F 28.0 °F 60% 30.01 in 10.0 mi South 4.6 mph - N/A   Clear
9:14 PM 40.6 °F 36.7 °F 28.0 °F 61% 30.02 in 10.0 mi South 5.8 mph - N/A   Clear
9:34 PM 40.5 °F 35.8 °F 28.2 °F 62% 30.02 in 10.0 mi South 6.9 mph - N/A   Clear
9:54 PM 40.3 °F 36.3 °F 28.0 °F 62% 30.02 in 10.0 mi South 5.8 mph - N/A   Clear
10:14 PM 39.9 °F 35.8 °F 28.0 °F 63% 30.02 in 10.0 mi South 5.8 mph - N/A   Clear
10:34 PM 39.7 °F 35.6 °F 28.0 °F 63% 30.02 in 10.0 mi South 5.8 mph - N/A   Scattered Clouds
10:54 PM 40.6 °F 37.5 °F 27.9 °F 60% 30.02 in 10.0 mi South 4.6 mph - N/A   Clear
11:14 PM 39.7 °F 36.5 °F 27.9 °F 63% 30.03 in 10.0 mi South 4.6 mph - N/A   Clear
11:34 PM 39.7 °F 36.5 °F 28.2 °F 63% 30.03 in 10.0 mi SSW 4.6 mph - N/A   Clear
11:54 PM 40.1 °F 36.9 °F 28.4 °F 63% 30.03 in 10.0 mi South 4.6 mph - N/A   Clear